This demonstration page uses our WeatherBlox Daily Observations layout. Learn more.

Left ArrowRight Arrow

39.01783, -85.05884

Hourly Observations for July 4, 2021

Temp ( °F °C ) Dew Point ( °F °C ) Humidity (%) Winds ( mph kmh ) Pressure ( in mb ) Visibility ( mi km ) Precip ( " mm )
12:52 am 00:52 Partly Cloudy 68 20 54 12.2 61 61 WSW 7 11 29.97 1015 10 16 0.00 0.00
1:52 am 01:52 Partly Cloudy 67 19.4 56 13.3 68 68 SW 6 9 29.96 1014 10 16 0.00 0.00
2:52 am 02:52 Cloudy 68 20 56 13.3 65 65 WSW 6 9 29.95 1014 10 16 0.00 0.00
3:52 am 03:52 Cloudy 68 20 56 13.3 65 65 WSW 6 9 29.94 1014 10 16 0.00 0.00
4:52 am 04:52 Cloudy 68 20 56 13.3 65 65 WSW 7 11 29.94 1014 10 16 0.00 0.00
5:52 am 05:52 Mostly Cloudy 67 19.4 57 13.9 71 71 W 9 15 29.94 1014 10 16 0.00 0.00
6:52 am 06:52 Partly Cloudy 66 18.9 58 14.4 75 75 W 9 15 29.95 1014 10 16 0.00 0.00
7:52 am 07:52 Partly Cloudy 68 20 59 15 73 73 W 9 15 29.95 1014 10 16 0.00 0.00
8:52 am 08:52 Mostly Sunny 72 22.2 61 16.1 68 68 W 9 15 29.96 1014 10 16 0.00 0.00
9:52 am 09:52 Partly Cloudy 76 24.4 63 17.2 64 64 WNW 12 19 29.96 1014 10 16 0.00 0.00
10:52 am 10:52 Mostly Sunny 79 26.1 64 17.8 60 60 W 10 17 29.95 1014 10 16 0.00 0.00
11:52 am 11:52 Partly Cloudy 81 27.2 65 18.3 58 58 NW 8 13 29.95 1014 10 16 0.00 0.00
12:52 pm 12:52 Partly Cloudy 83 28.3 66 18.9 57 57 WNW 12 19 29.95 1014 10 16 0.00 0.00
1:52 pm 13:52 Mostly Cloudy 85 29.4 68 20 57 57 WNW 13 20 29.95 1014 10 16 0.00 0.00
2:52 pm 14:52 Partly Cloudy 86 30 67 19.4 53 53 NW 12 19 29.94 1014 10 16 0.00 0.00
3:52 pm 15:52 Mostly Cloudy 86 30 68 20 55 55 WNW 13 20 29.94 1014 10 16 0.00 0.00
4:52 pm 16:52 Partly Cloudy 88 31.1 68 20 52 52 NW 14 22 29.93 1014 10 16 0.00 0.00
5:52 pm 17:52 Partly Cloudy 86 30 67 19.4 53 53 WNW 12 19 29.93 1014 10 16 0.00 0.00
6:52 pm 18:52 Partly Cloudy 86 30 67 19.4 53 53 WNW 10 17 29.93 1014 10 16 0.00 0.00
7:52 pm 19:52 Partly Cloudy 84 28.9 67 19.4 57 57 WNW 8 13 29.95 1014 10 16 0.00 0.00
8:52 pm 20:52 Mostly Sunny 80 26.7 69 20.6 69 69 W 8 13 29.96 1014 10 16 0.00 0.00
9:52 pm 21:52 Mostly Clear 78 25.6 68 20 71 71 W 5 7 29.97 1015 10 16 0.00 0.00
10:52 pm 22:52 Clear 76 24.4 68 20 77 77 W 7 11 29.98 1015 10 16 0.00 0.00
11:52 pm 23:52 Clear 76 24.4 68 20 77 77 W 6 9 29.99 1016 10 16 0.00 0.00

Powered by AerisWeather